Theta_e
324 325 322 321 321 324 326 327 331 332 333 333 332 333 333 333 331 331 330 323 321 327 328 328 329 328 328 327 325 324 322 319 320 321 321 321 321 320 320 319 319 319 320 323 325 326 328 328 329 329 329 330 330 329 329 328 329 329 329 330 329 329 330 330 330 330 330 330 330 329 329 328 328 327 326 326 327 327 328 329 329 328 327 326 325 325
324 325 322 321 321 321 323 326 329 330 332 333 333 333 333 333 331 329 327 322 319 325 330 328 328 329 329 328 325 325 325 322 322 322 322 322 322 322 321 321 320 320 320 321 322 323 325 327 328 329 329 330 330 329 329 329 328 328 328 329 329 329 329 329 330 330 330 330 330 329 329 328 328 327 326 326 326 326 327 328 328 328 327 326 326 326
325 324 322 322 322 322 323 325 327 329 331 334 335 334 335 334 331 327 323 320 320 325 330 328 326 328 328 327 327 325 325 325 325 324 324 324 324 324 323 323 323 322 322 321 320 320 322 325 327 329 329 329 329 329 329 329 329 329 328 328 328 328 328 328 329 329 330 330 329 329 329 328 328 327 327 326 326 325 326 326 326 326 327 326 326 326
325 324 322 321 322 324 324 325 326 328 330 334 337 336 336 334 334 332 325 319 320 323 324 323 324 327 327 326 326 325 324 324 325 324 324 325 324 324 324 325 324 324 324 322 321 320 320 323 326 328 329 329 329 329 330 330 330 329 329 328 328 328 328 328 328 328 329 329 329 329 329 329 328 328 327 326 326 326 325 325 325 325 325 325 325 325
324 323 322 321 322 323 325 326 327 328 329 332 335 336 335 333 333 331 324 319 320 321 320 322 327 329 328 329 328 326 324 323 324 324 324 324 324 324 324 325 325 324 324 323 322 320 319 320 323 326 328 328 329 330 330 330 329 329 329 328 328 328 328 328 328 328 328 328 328 328 329 328 328 328 327 326 326 326 325 325 324 325 325 325 325 325
322 322 322 322 322 323 324 327 327 328 330 330 333 334 332 332 331 325 321 322 326 327 323 325 332 331 327 329 330 327 325 324 324 323 323 324 323 324 323 324 324 324 324 323 322 322 321 320 321 324 326 328 329 329 329 329 328 328 328 328 328 328 328 328 328 327 327 327 327 328 328 328 327 327 327 326 326 325 325 324 324 325 326 325 326 326
322 322 322 322 323 323 325 326 326 328 330 331 331 330 329 331 330 324 323 327 331 331 323 321 331 332 327 328 329 328 326 325 326 324 323 323 322 322 322 323 323 323 323 323 322 321 321 320 320 321 324 327 328 327 327 327 327 327 328 327 327 328 328 328 328 327 327 326 327 327 327 327 327 327 327 326 326 325 324 325 325 325 326 326 326 325
323 323 323 324 324 325 326 326 326 327 329 330 330 330 329 329 329 327 326 329 330 330 323 318 325 331 329 329 327 327 327 327 327 326 325 324 322 321 322 321 322 321 322 322 322 321 320 321 320 319 321 323 324 324 325 326 326 327 327 327 326 327 328 328 328 327 327 327 326 327 327 327 327 327 327 327 326 325 325 325 325 325 325 325 325 325
323 323 324 324 325 327 327 326 326 327 329 330 329 328 328 328 330 328 328 330 328 330 331 323 323 329 332 329 325 325 326 328 328 327 327 326 324 322 321 321 321 321 321 321 321 321 320 320 319 319 319 320 321 322 324 324 325 326 327 327 328 327 328 327 328 327 327 326 326 326 327 327 327 327 327 328 327 326 325 325 325 325 325 325 325 325
324 324 323 323 325 326 326 326 326 327 329 329 326 325 325 327 329 327 329 331 328 330 335 328 324 331 333 328 325 324 325 328 328 327 329 327 326 325 323 322 321 320 320 320 320 320 320 320 319 318 318 317 318 319 321 323 324 326 327 328 328 328 328 327 327 327 327 326 326 326 327 327 327 327 327 327 327 326 325 325 325 325 325 325 325 325
324 325 323 323 325 324 324 325 326 327 328 326 325 325 327 328 329 330 329 330 331 334 335 330 325 330 333 329 326 327 326 327 328 328 328 327 326 325 325 323 321 319 319 318 318 318 319 319 318 318 317 316 316 316 317 320 322 324 326 327 327 327 328 327 327 327 326 326 326 326 326 326 326 326 327 327 327 326 326 325 325 325 325 325 325 325
323 325 325 327 327 323 324 326 325 326 325 326 328 331 331 329 330 331 329 330 335 337 333 329 326 328 332 330 325 327 326 324 326 327 328 327 325 325 324 322 318 317 317 317 317 317 317 317 316 316 316 315 315 315 315 318 320 323 325 326 327 327 328 327 327 327 326 326 326 326 326 326 326 326 326 326 326 326 326 325 325 325 325 325 325 325
323 324 325 327 326 324 326 327 325 325 325 328 332 332 333 331 332 334 333 333 336 334 327 326 328 329 330 328 325 326 326 324 324 324 325 325 324 324 325 322 318 318 317 316 316 316 316 316 316 316 315 315 315 315 315 316 319 322 324 325 327 327 327 327 327 326 326 326 326 326 326 326 326 326 326 326 325 326 325 325 325 325 325 325 325 325
324 324 324 325 326 325 327 328 327 326 326 330 331 331 332 333 335 336 335 334 334 331 323 322 327 330 329 326 325 325 325 325 325 323 324 323 323 323 324 321 319 318 318 317 317 317 316 315 316 316 315 315 315 314 315 315 316 320 323 325 327 327 327 327 327 326 326 326 326 326 326 325 325 325 326 325 325 325 325 325 325 325 325 325 325 325
324 325 324 325 327 326 327 328 327 326 328 330 331 332 332 331 333 334 333 333 332 328 323 323 327 330 328 325 323 322 322 323 322 322 321 321 320 320 320 320 319 317 317 317 317 315 314 315 315 315 315 315 315 314 314 315 315 318 321 323 325 326 327 327 326 326 326 326 326 326 326 326 326 325 325 325 325 326 326 326 326 326 325 325 325 325
323 325 324 323 325 326 326 328 325 326 329 329 330 333 333 330 328 327 327 327 327 327 325 324 326 326 324 323 322 322 321 321 320 320 319 319 318 317 318 319 318 317 317 318 317 314 314 315 315 314 314 314 314 314 314 314 315 316 318 321 323 324 326 326 326 326 326 326 326 326 326 326 326 325 325 325 325 325 326 326 325 325 325 325 325 325
322 324 323 322 325 325 326 327 325 326 330 330 330 332 331 328 326 325 324 322 323 328 328 325 326 325 323 324 323 323 323 322 322 322 320 319 318 317 317 319 319 319 319 318 316 314 314 314 314 313 313 313 313 313 313 313 313 315 317 320 322 324 326 326 325 326 326 326 326 326 326 325 325 325 325 325 325 325 325 326 325 325 325 325 325 325
322 324 323 321 324 326 325 326 326 326 329 331 332 330 326 326 328 327 327 325 325 328 328 326 327 326 326 326 323 322 324 324 324 324 322 320 320 321 323 323 322 321 320 317 314 313 311 312 313 312 311 311 311 311 311 311 311 312 314 318 321 323 325 326 325 325 325 325 326 326 326 326 325 325 325 325 325 325 325 325 325 325 325 326 326 326
322 324 325 322 323 325 325 328 328 327 326 327 329 327 326 329 331 329 329 330 329 329 328 326 326 325 326 325 321 322 324 324 324 324 323 321 321 323 326 327 323 321 321 317 313 311 310 310 310 310 309 308 308 308 308 309 309 309 311 314 318 321 323 324 324 325 325 325 325 326 326 326 326 326 325 326 326 326 326 325 325 325 325 325 326 326
321 324 327 325 324 325 326 328 330 329 326 325 327 328 328 330 330 328 328 329 329 330 330 327 325 324 325 324 322 323 324 323 324 323 323 323 322 323 324 324 322 322 321 318 314 312 312 312 309 307 307 306 305 305 305 306 307 307 309 310 314 318 321 323 324 324 325 325 325 325 326 326 326 326 326 326 326 326 326 325 325 325 325 325 326 326
322 325 327 326 325 327 329 329 329 330 329 328 329 330 329 328 328 328 328 327 326 328 329 328 327 323 322 323 323 322 322 323 324 324 323 324 323 323 323 321 321 320 318 318 318 314 312 312 309 306 305 304 304 304 304 305 306 306 308 309 311 315 318 320 322 323 324 325 325 325 326 326 326 326 326 326 326 326 326 326 326 325 326 326 326 325
322 323 325 326 327 329 329 328 327 327 327 329 331 331 329 328 328 330 331 328 326 326 326 327 328 324 320 322 322 322 322 322 324 325 324 324 323 322 321 319 317 316 315 316 315 312 310 309 308 306 305 303 304 304 304 305 305 306 307 308 310 313 316 318 319 321 322 324 324 325 326 326 326 326 326 326 326 326 326 326 326 326 326 326 326 325
324 325 325 326 328 328 326 326 327 326 325 327 329 329 329 327 327 330 332 330 326 326 325 324 327 326 320 321 323 322 323 323 324 325 323 323 322 320 319 318 316 315 314 312 311 310 309 307 306 305 304 304 304 304 304 305 305 306 306 307 309 311 314 316 318 319 321 322 323 324 324 325 325 326 325 325 326 326 326 326 326 326 326 326 326 325
324 325 326 326 327 326 325 325 326 326 326 327 327 327 328 328 327 327 328 327 327 328 326 326 329 327 320 319 321 321 322 322 323 322 321 323 321 317 318 322 321 316 312 309 308 307 306 305 306 305 305 306 306 305 305 306 306 306 306 307 307 309 312 314 317 318 319 321 322 322 323 324 324 324 324 325 325 325 325 325 326 326 325 325 325 325
322 324 325 327 329 328 327 327 327 326 327 328 327 326 327 328 327 327 325 322 325 328 327 327 330 326 318 316 317 316 316 317 318 317 316 320 321 317 319 323 320 315 313 311 310 308 308 310 311 310 309 309 307 305 306 307 306 307 307 307 307 308 309 311 314 316 317 319 320 320 321 322 322 323 323 323 324 324 324 324 325 325 325 325 325 324
323 325 325 327 330 330 329 331 330 328 328 329 328 326 327 328 327 328 325 323 324 327 326 326 327 324 318 316 316 315 315 316 317 315 312 314 317 318 321 324 321 317 317 316 315 315 314 312 312 313 311 308 306 306 306 307 307 307 308 308 308 308 308 309 310 312 314 316 317 318 319 320 321 321 322 322 322 323 323 323 323 323 324 324 323 323
322 325 324 325 327 328 328 330 329 329 329 329 329 327 327 327 327 327 326 325 325 325 325 325 325 323 320 318 318 318 318 318 319 319 317 316 318 320 322 325 322 318 315 312 315 319 319 314 312 314 312 307 306 306 307 308 308 308 308 308 309 309 309 309 309 309 311 312 314 315 316 317 318 319 320 320 321 322 322 322 322 322 322 322 322 322
320 324 325 324 325 325 327 327 326 327 328 328 328 328 327 327 328 328 327 326 325 325 326 324 324 325 322 319 319 319 318 317 318 320 320 320 322 324 323 323 320 318 316 313 315 321 323 319 316 316 314 307 305 306 308 309 309 309 309 309 309 310 309 310 309 309 309 310 311 312 312 313 314 315 317 318 319 320 320 320 320 320 320 320 320 320
321 323 324 324 325 325 326 326 325 326 326 327 327 327 327 327 328 328 327 326 325 326 326 324 324 325 323 320 320 319 318 318 317 318 318 317 319 320 320 321 320 320 319 317 317 320 323 321 319 320 317 309 305 306 307 308 309 309 309 310 310 309 310 309 309 309 309 309 310 310 310 310 311 312 314 315 317 318 318 318 318 318 318 318 318 318
321 323 323 324 325 324 324 326 326 326 326 326 327 327 327 327 327 327 326 325 326 326 325 324 325 325 322 321 320 318 318 319 318 316 314 313 316 318 320 322 321 321 321 319 317 318 321 322 320 321 321 312 306 306 306 307 309 309 309 310 309 309 309 309 309 309 309 309 309 309 309 309 309 310 311 312 314 316 316 316 315 315 315 316 316 317
322 323 323 324 324 324 324 324 325 327 327 327 326 326 327 327 327 327 327 326 327 326 325 325 326 325 322 321 320 319 319 318 318 316 315 315 317 318 321 323 323 324 324 322 320 319 320 320 319 323 326 316 307 306 307 307 308 308 309 309 309 310 309 309 310 309 309 309 308 308 308 308 308 308 309 310 311 313 314 314 314 314 314 314 314 315
322 323 324 324 324 324 324 323 324 325 326 327 327 326 326 327 327 327 327 327 327 327 327 327 327 326 323 321 320 320 319 318 318 319 319 318 317 318 320 323 326 326 324 322 322 323 323 322 323 327 325 313 307 307 308 308 308 309 310 311 311 311 310 310 310 310 310 309 308 308 307 306 307 307 307 307 308 309 311 312 312 313 313 313 313 313
321 322 322 323 324 325 324 324 324 323 324 326 326 326 326 326 326 327 326 326 326 326 327 327 326 324 322 321 321 321 320 319 319 320 322 320 319 320 319 321 324 324 322 323 325 326 327 326 324 323 316 309 309 310 310 310 310 311 312 312 311 310 310 310 309 309 309 309 308 308 307 306 306 306 307 307 307 308 308 310 311 311 311 312 312 311
320 321 321 322 324 325 325 324 323 324 327 328 325 324 325 325 325 326 326 325 325 324 325 325 324 322 321 321 321 321 320 320 320 321 323 321 320 320 318 317 321 321 320 321 322 322 324 323 320 314 310 310 312 312 310 310 311 311 311 310 310 309 309 309 309 309 309 309 308 307 307 306 305 305 306 306 306 307 307 308 308 308 308 309 309 309
319 319 319 320 322 323 323 323 325 327 328 328 324 323 323 323 324 325 326 324 324 324 324 324 323 323 321 321 321 321 320 320 320 320 321 320 319 319 318 318 319 320 319 319 318 318 319 320 317 313 310 312 313 312 310 311 311 311 310 310 310 309 309 309 308 308 309 308 308 307 306 306 305 304 305 305 305 305 306 306 306 305 305 305 306 308
319 319 318 319 320 322 322 324 327 328 327 326 325 322 321 323 324 325 326 325 323 323 324 324 324 322 322 320 319 320 320 320 320 320 319 319 319 318 319 318 318 319 320 319 318 318 319 319 317 315 313 313 313 312 311 311 311 311 310 310 310 309 309 308 307 308 308 308 308 307 306 305 304 303 303 302 302 303 303 303 303 303 304 304 306 307
320 320 319 319 320 321 323 325 325 325 326 326 324 322 322 322 323 324 326 324 322 322 322 323 323 322 322 321 319 319 320 319 319 319 318 318 320 318 317 318 319 320 319 318 317 317 317 317 316 315 314 313 312 311 311 311 310 309 308 309 309 308 307 306 306 308 308 308 309 307 305 305 304 303 302 301 301 302 302 301 301 302 303 305 306 307
319 320 321 322 321 320 322 324 324 326 327 325 323 321 320 322 322 323 324 324 322 321 321 321 321 321 322 321 319 320 320 319 319 320 319 319 320 319 318 318 319 320 318 315 314 315 315 315 315 314 313 312 311 311 311 311 309 308 307 307 307 306 305 305 306 308 309 309 309 307 305 304 304 303 302 300 301 302 301 300 301 302 303 304 306 306
316 318 319 321 321 320 323 324 324 326 325 323 323 322 321 324 325 323 324 325 322 320 321 321 321 321 321 321 319 319 320 321 321 321 320 321 321 320 319 318 317 316 314 312 313 313 314 314 313 312 311 310 311 312 311 310 308 307 307 307 307 306 304 305 308 310 311 310 309 307 305 304 304 303 303 302 302 302 301 300 301 301 302 304 305 305
315 315 316 319 321 320 322 324 323 324 324 322 321 321 320 322 322 324 328 327 319 317 320 320 320 320 321 321 318 318 320 321 321 320 321 323 322 320 318 316 315 314 313 313 313 312 312 311 310 310 310 310 311 311 310 308 307 306 306 307 306 304 305 308 311 311 311 309 307 306 305 305 304 304 304 304 303 302 302 301 301 301 301 302 303 303
315 315 315 318 319 319 321 323 322 324 323 318 317 317 318 321 322 325 325 318 310 309 312 315 319 320 321 321 317 317 320 320 319 319 320 321 321 319 315 312 309 310 311 311 311 311 310 309 309 309 310 310 310 309 307 306 305 304 305 305 304 304 307 310 310 309 308 307 305 305 305 304 304 304 304 304 303 302 301 301 300 300 301 301 301 301
316 316 316 318 319 319 320 321 322 323 317 310 312 316 317 322 324 320 313 306 303 303 305 307 312 317 320 321 318 317 319 318 318 318 318 318 317 315 314 312 310 310 309 309 309 308 307 307 307 308 309 309 307 306 305 304 303 303 303 302 303 305 307 307 306 305 305 304 304 304 303 303 303 303 303 303 302 301 300 300 299 299 299 299 299 299
316 317 317 318 318 319 320 321 323 323 313 306 312 317 315 315 315 309 305 304 302 302 303 304 305 306 312 317 317 316 317 316 316 318 318 317 315 312 313 314 313 311 309 306 306 306 305 305 306 306 306 305 304 303 303 301 301 301 301 301 303 304 304 303 303 303 302 302 302 302 302 302 302 301 301 301 301 300 300 299 298 298 297 297 298 297
317 318 317 318 318 319 322 321 318 315 307 304 309 311 307 305 305 302 302 303 301 300 301 302 302 301 305 309 311 311 311 311 311 313 313 314 312 309 308 308 306 305 303 301 301 301 301 301 302 302 302 301 301 301 301 300 300 299 299 301 303 302 301 301 301 301 301 301 301 301 301 301 301 301 301 301 300 300 298 298 297 296 296 296 296 296
316 315 315 316 316 315 317 316 310 306 305 304 305 305 302 301 301 301 300 300 299 300 300 300 300 300 301 304 304 304 305 305 305 306 306 307 306 304 304 303 302 301 299 298 298 298 297 298 298 298 298 299 299 300 300 299 299 298 299 301 302 300 300 300 300 299 300 300 300 300 300 299 299 300 300 300 300 299 298 297 296 296 296 295 295 296
311 311 312 314 313 311 311 309 306 305 305 304 303 303 302 301 300 299 299 298 298 298 299 299 300 299 300 301 302 302 302 302 302 302 302 302 301 301 301 301 300 299 298 297 297 296 296 296 296 296 296 297 297 298 298 298 298 298 299 300 300 299 299 299 299 299 299 299 299 299 299 298 298 298 298 298 298 298 298 297 296 296 295 295 295 295
309 311 314 315 315 314 311 307 304 304 304 303 303 303 301 300 299 298 298 298 297 297 298 298 298 299 299 300 301 301 301 301 301 301 301 301 300 300 300 299 299 298 298 297 296 295 295 295 295 295 295 296 296 296 296 296 297 297 297 298 298 298 298 299 299 298 298 298 298 298 298 298 297 297 297 297 297 296 296 296 295 295 295 295 295 295
309 311 313 313 313 312 310 305 302 302 301 300 301 301 300 299 299 297 297 297 296 296 296 297 297 298 298 299 299 300 300 299 299 300 299 299 299 299 298 298 298 298 298 297 296 295 295 295 294 294 294 294 294 294 294 295 295 295 296 296 297 297 298 298 298 298 298 297 297 297 297 297 297 297 296 296 296 295 295 295 295 295 295 295 295 295
309 311 312 311 309 308 306 304 303 303 302 300 299 299 298 298 297 297 296 296 296 296 296 296 297 297 297 298 298 298 299 298 298 298 298 298 298 298 298 297 297 297 297 296 295 295 295 294 294 294 294 294 293 292 292 293 294 294 294 295 296 296 297 297 297 297 297 297 296 296 296 296 296 296 296 295 295 295 294 295 295 295 295 295 295 295
307 309 309 309 308 308 306 304 304 305 304 300 298 298 298 297 297 296 296 296 295 295 295 296 296 296 296 297 297 296 297 297 297 297 297 297 297 297 297 297 297 296 296 295 295 294 294 294 293 293 293 293 292 291 290 290 292 293 293 294 295 295 296 296 296 296 296 296 296 296 296 295 295 295 295 295 294 294 294 294 294 294 294 295 295 295
307 308 308 308 308 306 304 302 303 303 301 299 298 297 296 296 296 295 295 295 295 295 295 295 295 296 295 295 295 295 295 295 295 295 295 296 296 297 297 296 296 296 295 295 294 294 293 293 293 292 292 292 291 290 289 289 289 291 292 292 293 294 294 294 294 295 295 295 295 295 295 295 295 295 294 294 294 293 293 294 294 293 294 294 294 294
Wind_Speed
4 5 5 8 10 11 13 14 11 6 7 7 13 11 9 11 11 8 4 3 6 8 10 13 15 18 17 14 14 13 10 9 10 12 12 11 10 9 9 10 10 12 11 10 13 14 15 18 22 24 24 24 24 24 24 25 26 28 27 27 30 29 24 22 21 20 22 23 23 25 26 25 25 28 31 31 30 30 31 29 25 21 18 16 16 21
5 7 9 13 12 11 11 12 11 10 10 6 11 10 11 13 10 5 4 4 4 6 9 10 14 19 18 14 15 14 13 14 14 15 16 16 14 10 11 13 12 11 8 8 11 13 14 16 20 22 23 25 26 27 28 28 29 30 30 29 30 30 29 28 25 22 22 22 23 23 23 24 24 25 29 32 30 31 33 30 28 25 22 18 17 22
6 8 14 14 11 9 8 10 12 11 10 8 7 9 10 10 6 3 3 3 4 5 7 7 9 16 17 15 15 14 13 16 17 18 18 17 15 14 14 14 13 12 10 12 14 13 15 17 19 20 21 25 29 30 30 30 30 29 31 33 31 30 34 35 31 28 26 22 21 21 19 20 20 20 22 26 25 26 27 26 27 28 26 21 19 22
9 11 14 14 10 9 9 11 13 11 9 8 7 10 9 9 8 4 4 5 5 4 3 4 6 12 15 14 14 14 15 17 18 18 18 16 15 17 17 15 14 16 15 15 15 14 14 16 18 20 21 24 27 28 27 28 28 28 32 35 34 32 35 38 38 37 33 27 24 20 17 17 18 17 16 18 19 19 19 20 21 23 25 23 22 25
11 8 13 14 13 13 11 11 13 10 9 9 9 11 8 10 9 3 5 6 3 4 3 4 7 10 13 14 14 12 15 18 18 17 17 15 16 17 17 17 16 17 16 14 15 14 14 16 18 21 23 23 25 27 28 30 32 34 36 39 38 36 37 40 40 40 37 32 28 22 17 17 18 18 17 18 20 18 17 18 18 20 24 25 25 24
11 9 16 15 14 15 13 11 13 11 9 10 10 10 7 11 9 6 8 7 3 6 6 5 8 8 9 12 12 8 10 14 15 14 16 15 15 16 15 16 16 16 14 13 15 13 13 17 19 20 23 23 25 29 31 34 38 41 40 40 41 40 41 42 41 40 38 35 32 27 22 21 21 21 22 23 23 21 21 21 22 23 26 27 25 21
7 10 15 16 14 15 13 11 13 11 9 8 6 7 5 10 9 9 10 7 6 6 3 6 9 8 7 10 10 7 7 12 13 12 15 14 14 14 14 14 14 13 13 13 14 14 14 16 17 19 23 25 28 32 33 36 40 41 39 39 41 42 43 43 42 40 39 37 33 31 30 27 23 23 24 25 24 25 27 27 27 29 29 29 27 21
8 12 13 15 14 13 11 11 13 13 10 7 3 4 5 9 10 10 9 7 6 2 0 5 6 7 9 8 7 8 8 13 15 13 14 13 13 13 13 14 14 14 14 13 13 14 15 16 18 20 23 28 32 33 33 37 40 40 40 41 41 41 41 42 41 40 41 39 34 33 34 31 28 29 26 23 24 27 29 30 31 31 31 31 30 23
12 16 15 16 13 10 12 11 11 13 10 6 3 5 5 7 8 8 8 7 1 2 6 7 5 6 10 5 3 6 10 14 16 17 17 14 12 12 13 14 15 16 15 14 14 15 15 18 22 23 23 27 31 31 33 38 39 38 39 39 38 38 39 40 40 41 41 41 38 35 34 32 32 33 27 21 24 29 29 31 32 31 32 32 31 27
7 14 16 16 11 10 13 10 11 15 10 4 3 3 4 4 5 4 5 3 3 3 11 8 9 7 10 8 6 5 7 13 15 15 15 13 12 12 13 13 14 13 12 12 14 14 15 18 21 20 19 22 27 31 35 35 34 34 33 33 34 35 36 39 40 40 41 41 39 35 33 35 34 32 27 22 24 30 30 30 32 31 32 32 31 29
1 5 11 10 7 7 10 10 13 15 10 4 3 4 6 3 4 3 1 2 2 7 8 10 14 10 10 9 9 7 8 12 13 12 11 10 12 12 11 9 8 9 8 9 11 13 14 15 16 16 17 20 24 29 33 32 34 34 31 31 34 35 35 37 38 39 39 40 41 38 37 39 39 34 31 27 28 32 32 32 33 33 32 31 31 30
1 5 6 4 2 6 8 8 9 9 10 8 3 4 5 1 2 2 2 3 8 8 5 10 15 14 13 8 5 5 6 7 10 11 10 9 9 9 7 5 6 7 7 7 9 10 11 11 12 14 17 19 19 23 28 31 33 33 33 32 32 34 35 35 36 37 38 39 41 41 40 41 41 39 38 36 36 36 35 35 33 31 31 30 29 28
2 4 5 3 3 9 11 7 3 4 9 8 4 6 5 2 3 4 4 4 9 6 1 3 11 13 14 11 9 8 6 7 8 9 9 8 7 7 5 5 5 5 4 6 7 7 8 9 10 13 17 18 16 21 26 28 30 31 32 32 30 33 36 35 36 38 39 40 42 43 42 43 43 42 42 41 41 39 36 36 33 30 29 28 27 26
6 4 6 6 4 7 11 9 6 5 8 10 9 9 8 4 5 8 7 4 7 4 2 2 5 7 9 8 13 16 14 13 11 9 9 9 9 6 3 3 3 3 5 6 6 7 7 8 9 12 16 17 18 22 24 27 30 29 28 28 28 30 32 34 37 39 41 42 43 45 45 45 44 43 43 43 41 39 36 34 33 32 31 30 31 31
11 8 10 12 8 11 13 12 11 10 11 12 10 9 9 6 4 7 8 7 6 1 2 4 4 6 5 0 3 8 10 10 8 7 6 7 7 5 4 5 5 5 6 6 6 7 8 8 9 12 14 15 18 21 22 25 29 30 29 29 30 29 29 33 37 39 41 44 45 45 45 45 46 44 44 43 40 37 35 33 32 34 34 34 35 35
9 5 9 12 8 15 19 13 12 11 9 9 7 8 9 6 3 2 1 3 2 0 3 6 4 5 2 6 8 6 6 7 8 6 6 7 6 4 6 7 6 7 6 6 7 8 9 9 10 11 11 12 15 18 20 24 27 30 31 30 32 32 30 32 36 37 39 43 44 44 44 45 44 42 41 41 39 37 36 36 35 35 36 35 35 34
8 5 10 12 6 15 20 14 14 12 8 7 8 9 6 2 3 3 1 2 1 6 6 7 7 7 4 11 13 12 13 13 12 10 8 8 5 4 7 7 6 7 6 5 6 7 8 9 9 10 11 12 13 15 19 23 26 30 30 28 29 28 25 27 33 36 37 38 40 41 43 43 42 41 42 42 41 39 38 37 36 36 35 35 35 33
6 3 9 17 16 17 16 15 15 12 6 5 9 9 4 0 2 2 4 2 2 8 5 8 12 9 6 7 4 7 14 17 17 12 7 5 5 5 7 7 7 6 5 6 6 7 8 8 8 9 10 12 13 14 17 19 23 27 28 28 27 25 25 26 30 34 36 36 38 39 41 42 42 42 42 43 41 37 36 36 36 35 34 35 35 34
5 1 3 14 17 12 8 11 12 8 3 2 7 9 6 3 4 3 5 6 6 9 6 7 9 8 10 8 3 6 8 8 11 9 5 6 7 6 6 6 5 3 4 5 5 6 6 6 7 8 9 11 14 16 17 18 20 23 26 27 27 25 26 27 29 32 35 36 38 40 41 41 41 41 40 39 36 33 34 35 34 34 35 35 35 34
6 4 3 7 9 9 7 8 9 8 6 4 4 6 2 2 4 5 5 4 5 8 8 5 4 5 10 10 10 16 12 5 5 5 7 9 6 5 5 4 3 2 3 5 4 5 5 4 5 6 8 11 13 16 18 18 20 21 23 26 27 26 25 26 29 32 33 35 37 39 40 39 37 35 34 32 29 29 33 35 35 34 33 33 31 29
5 4 4 4 5 8 6 8 11 14 12 7 7 8 5 2 1 3 5 3 3 7 8 7 6 5 6 10 15 19 15 12 9 6 8 7 4 5 4 3 4 4 5 5 4 4 4 3 4 5 8 11 12 14 16 17 19 20 22 24 26 27 26 27 29 31 33 34 36 37 37 37 33 27 25 24 23 25 28 30 31 30 27 26 24 22
6 4 5 5 6 8 9 12 16 18 17 12 10 11 10 8 4 4 7 5 3 5 5 5 8 6 4 7 12 13 12 14 12 8 7 6 6 6 3 3 6 5 6 5 4 4 4 3 4 5 7 10 11 13 14 17 19 20 21 22 24 26 28 29 31 32 33 33 34 35 34 35 33 24 20 22 22 22 23 23 25 24 22 22 23 24
1 3 5 4 4 6 5 5 8 13 16 10 5 7 9 8 8 8 9 7 5 5 2 3 7 4 4 6 8 7 8 9 6 4 5 5 5 4 3 5 6 5 6 6 5 4 4 4 5 6 8 10 12 13 13 15 18 20 21 22 23 25 27 30 30 31 32 31 32 33 32 33 30 23 20 22 22 24 26 25 23 22 23 25 26 29
1 3 6 4 2 1 2 2 1 5 10 6 3 5 7 10 12 8 5 3 6 7 5 5 8 5 3 3 3 3 2 3 3 3 5 5 3 3 5 5 5 5 6 6 5 4 4 4 5 5 7 8 11 13 13 14 16 19 20 21 23 25 25 26 27 27 28 28 29 29 30 32 28 22 22 23 23 26 29 28 25 24 26 30 31 32
5 6 7 6 6 3 2 3 2 3 7 7 8 10 11 15 13 5 0 1 6 11 10 8 10 6 2 2 1 1 2 3 3 2 3 5 3 4 5 4 4 5 5 5 5 4 4 4 4 5 5 6 10 13 13 15 16 17 18 20 21 22 23 23 23 23 24 25 27 28 29 31 29 25 26 26 25 27 28 27 27 28 30 32 32 32
5 6 7 8 9 8 9 10 9 10 9 8 11 15 16 19 18 10 5 5 7 10 11 11 10 2 3 1 2 1 1 4 4 2 3 5 5 5 4 3 3 4 5 5 4 2 3 3 4 4 4 6 10 13 13 14 15 16 16 16 17 18 19 19 20 21 22 24 25 27 29 31 31 31 32 32 30 31 31 30 31 32 33 33 32 32
1 4 9 11 9 7 6 6 8 12 13 12 16 20 20 20 21 14 6 7 11 10 9 14 12 3 1 4 5 4 4 5 7 6 5 5 6 5 5 4 3 3 5 5 3 2 2 3 5 4 4 6 11 13 13 13 14 15 14 14 14 14 15 16 17 18 21 22 24 26 28 30 32 33 33 33 33 34 33 33 33 33 33 33 32 32
1 3 9 13 13 6 1 3 8 12 15 17 19 22 21 18 19 16 12 14 13 8 11 16 12 7 7 8 7 7 7 6 8 9 7 6 6 5 3 3 4 4 4 4 4 3 1 2 4 4 3 5 10 12 12 13 13 13 14 14 13 14 14 15 16 17 19 21 23 26 27 29 30 31 32 32 33 33 32 32 32 33 32 32 32 33
3 5 9 13 16 10 0 3 11 13 13 15 16 19 19 18 19 20 19 20 14 8 15 18 10 11 16 12 10 9 8 7 8 7 5 3 4 4 3 3 4 3 2 3 3 2 3 2 3 3 2 4 8 11 12 13 13 13 14 13 13 13 14 14 15 17 19 21 24 26 26 27 28 29 30 31 31 32 32 32 31 31 31 32 33 33
4 7 9 10 15 14 5 2 9 13 13 12 13 16 17 19 22 22 20 20 15 12 19 20 12 16 19 12 11 9 6 5 4 2 1 1 2 3 4 4 4 3 2 2 3 2 2 3 2 3 2 3 7 11 12 14 14 14 13 12 12 12 12 12 14 16 18 22 24 26 26 26 27 27 28 30 30 31 31 31 30 30 31 32 32 32
7 8 9 8 9 13 10 5 6 11 13 13 14 15 15 16 19 18 18 17 14 16 25 22 16 18 14 6 7 6 4 4 5 5 4 4 4 4 4 4 4 3 3 3 2 2 2 3 3 3 2 4 9 13 13 13 12 11 10 10 10 10 10 11 13 15 18 21 23 24 25 26 26 26 27 28 29 30 30 30 30 30 31 31 31 31
7 5 6 7 6 10 14 12 9 8 8 11 14 15 16 16 17 18 18 17 15 19 24 20 17 16 8 6 8 8 7 7 9 11 7 2 2 3 4 5 4 2 2 2 2 3 3 3 4 3 3 7 12 14 13 11 10 9 9 10 10 10 10 12 14 15 18 20 21 23 24 25 26 26 27 28 28 30 30 29 29 30 30 31 31 30
5 4 4 7 8 11 14 15 11 4 3 7 12 16 20 21 20 19 18 19 20 19 17 15 14 8 5 8 12 13 13 12 11 12 7 3 4 5 5 5 3 3 3 3 3 4 4 4 4 4 7 11 14 15 12 10 9 10 11 11 11 11 11 13 14 16 17 19 20 21 23 24 26 27 29 29 29 29 28 28 30 31 31 31 30 29
5 4 3 5 7 9 8 8 6 5 6 8 11 18 23 23 22 20 18 20 20 17 14 15 13 6 7 10 13 13 15 15 13 11 6 5 7 8 6 5 4 4 4 3 5 5 5 5 4 7 12 16 17 15 11 10 12 12 12 11 11 11 12 14 15 16 18 19 20 21 22 23 25 28 29 29 28 28 28 29 30 30 30 29 28 28
9 5 2 1 3 3 5 8 6 9 11 8 6 13 18 19 19 19 19 19 18 18 21 25 22 13 7 7 8 8 12 13 12 14 13 11 11 11 9 7 5 4 4 5 7 7 7 6 6 9 16 19 19 16 13 13 14 13 13 12 12 13 14 15 16 18 19 21 22 23 22 23 25 27 27 27 27 27 28 29 30 30 29 28 28 29
11 9 2 0 2 1 3 7 7 5 4 1 5 7 10 12 13 15 18 21 22 24 25 25 22 13 7 5 3 2 5 5 7 14 19 16 12 9 9 8 6 6 8 8 9 10 12 13 12 12 16 18 17 15 14 14 14 13 13 13 14 15 16 16 18 19 21 23 24 24 23 22 23 24 25 26 26 27 30 30 30 29 28 28 29 29
8 10 6 3 4 3 2 5 4 4 3 3 6 9 12 14 15 14 14 16 16 18 18 18 17 13 10 8 4 3 1 0 5 14 17 13 8 7 8 9 8 9 11 13 16 18 21 21 18 15 15 16 16 15 14 14 13 12 13 13 14 16 16 17 18 20 23 24 26 26 24 21 22 23 25 25 26 29 31 30 29 28 28 28 30 31
3 6 8 8 7 5 5 5 3 5 6 6 9 13 14 13 10 8 8 11 9 12 16 19 19 17 14 9 6 5 3 3 9 15 9 7 8 9 10 10 10 11 13 15 17 19 22 23 20 18 17 16 17 17 16 15 13 11 12 13 15 16 16 17 20 22 24 26 27 26 24 22 22 23 24 26 28 30 30 28 28 28 28 30 31 32
2 1 3 6 6 5 8 8 5 6 7 3 3 6 9 7 9 10 5 12 9 11 15 18 17 15 13 10 8 8 6 7 14 12 3 9 10 11 11 12 12 13 17 19 18 18 20 19 17 17 16 15 18 20 17 15 12 11 13 15 16 16 17 19 22 23 24 26 26 24 23 22 22 23 25 27 29 30 30 29 28 28 29 30 31 31
2 1 2 5 5 5 8 8 4 5 4 2 4 0 7 11 13 9 9 9 4 4 7 13 16 13 12 11 10 10 10 12 12 4 6 7 11 9 8 9 9 11 14 18 20 19 17 14 13 13 14 16 19 19 15 12 11 11 15 17 16 17 19 21 23 23 24 25 24 23 23 22 23 24 26 28 30 30 30 29 28 28 29 30 29 29
2 2 2 4 6 6 8 6 3 4 1 3 4 4 4 11 11 8 9 4 7 10 8 8 11 9 10 11 9 9 13 15 10 1 5 1 4 1 1 1 2 5 8 11 15 14 11 10 10 12 14 16 16 15 14 12 11 14 18 17 18 21 23 24 24 23 23 23 22 22 23 23 23 24 26 28 28 28 28 28 28 27 28 28 27 27
4 4 3 4 5 5 5 4 4 3 1 4 6 5 2 5 6 4 3 3 7 10 10 9 8 5 5 9 9 10 12 11 6 2 5 3 2 3 2 3 2 1 3 5 8 8 7 6 7 10 14 15 14 14 13 12 13 16 17 17 21 24 24 22 21 21 21 21 21 21 21 22 23 23 24 26 26 26 27 26 25 25 26 26 26 26
5 5 4 5 4 3 4 5 6 4 2 7 6 2 4 1 1 2 4 4 7 9 9 9 10 9 6 1 3 5 3 2 3 4 3 2 3 3 1 2 3 3 4 4 5 5 5 6 9 11 13 13 12 11 10 10 13 15 15 18 22 22 19 18 19 19 20 20 20 21 21 21 21 21 22 24 24 25 25 23 23 23 24 24 24 25
4 3 3 4 3 3 5 4 2 0 4 7 3 5 5 4 3 3 3 5 8 9 7 8 10 10 8 6 5 5 6 7 5 4 4 4 4 4 3 4 4 5 6 8 8 8 7 8 11 12 13 14 12 9 8 9 12 13 15 18 19 17 16 17 17 17 19 20 20 20 21 20 20 20 20 21 22 22 22 21 21 21 22 22 23 23
2 1 1 1 1 1 1 3 4 4 3 6 8 9 8 7 6 5 5 7 8 7 7 7 9 10 10 8 8 9 8 6 6 6 5 5 5 5 4 3 4 5 6 7 9 9 9 9 10 12 14 15 11 9 8 8 9 12 14 15 15 15 15 16 15 15 17 18 18 19 19 18 18 18 19 20 20 21 22 22 21 21 21 22 23 22
1 1 1 1 3 4 6 5 5 4 5 8 9 8 8 8 7 6 7 7 7 7 7 7 7 9 10 8 9 10 8 6 6 6 5 5 6 6 5 4 5 7 8 8 10 11 11 10 9 10 13 14 12 10 10 9 8 11 14 15 15 16 16 16 16 16 16 16 17 17 17 16 17 17 17 18 19 20 21 21 22 22 22 23 23 24
1 1 2 2 4 4 4 4 4 5 6 7 8 7 8 8 6 5 6 6 5 6 7 7 8 9 9 9 10 10 8 8 8 8 8 7 7 8 8 8 8 8 9 9 11 13 14 12 11 10 10 11 12 13 13 11 9 10 12 14 14 14 14 15 15 15 16 16 16 16 15 15 15 15 16 16 17 18 18 18 19 20 21 21 22 24
1 1 2 2 1 2 4 6 6 6 6 7 6 6 7 7 6 5 5 4 4 6 6 7 7 8 9 10 10 10 11 11 10 9 8 7 8 8 8 8 8 9 11 14 15 16 15 14 13 13 11 9 11 14 15 13 11 11 10 11 12 12 12 13 13 13 15 15 14 14 14 13 13 14 15 15 16 17 18 18 18 19 21 22 22 22
1 0 2 3 4 4 4 5 6 5 5 6 6 5 6 5 5 5 5 5 7 8 8 8 8 8 8 9 10 10 12 11 10 10 9 8 8 8 8 9 9 11 14 17 18 17 16 15 15 16 13 11 11 13 14 14 13 12 11 11 10 10 11 12 11 12 13 13 13 13 12 12 12 13 14 14 15 16 18 20 20 20 22 23 24 24
1 1 1 3 4 4 2 2 2 3 4 4 4 5 5 4 4 5 6 8 9 8 8 8 8 8 8 8 9 10 11 10 10 10 9 8 8 8 8 9 9 12 17 20 20 20 19 18 17 17 17 15 15 14 14 14 13 13 12 12 11 11 11 11 11 12 13 12 12 12 11 11 11 12 12 13 13 12 14 18 21 22 23 22 22 24
1 1 1 2 4 4 4 4 2 3 3 2 3 6 5 4 4 7 7 7 7 6 6 7 7 8 8 8 8 9 9 9 10 10 9 8 9 10 11 11 10 12 16 21 22 22 22 21 21 20 21 22 22 20 18 16 14 12 12 12 12 12 12 11 11 12 12 10 10 10 10 10 10 11 11 11 10 9 10 12 15 19 22 24 23 22
Wind_Direction
144 129 172 205 211 219 223 234 242 297 312 212 189 194 192 197 211 208 175 136 186 215 225 227 242 251 248 240 231 228 222 224 238 244 246 242 239 236 232 233 230 229 233 232 230 223 213 214 218 218 216 215 216 218 217 217 216 216 216 215 219 218 211 209 213 214 215 217 218 219 222 223 225 230 235 238 239 239 241 242 241 239 237 234 234 241
147 162 205 206 205 219 228 245 259 284 291 221 182 186 193 205 210 188 166 142 163 221 239 230 243 255 252 246 238 230 232 240 239 240 244 242 240 240 239 238 237 235 229 230 235 226 216 215 216 215 213 211 213 217 217 217 218 218 218 219 221 219 214 212 212 211 214 216 216 217 220 221 224 230 234 237 239 241 243 244 242 239 238 236 235 243
169 200 210 197 194 210 226 248 257 268 272 244 198 185 196 199 184 142 140 134 160 211 249 240 249 264 260 254 246 229 229 245 243 238 243 243 241 243 243 242 242 240 231 230 234 223 214 214 212 212 212 212 215 218 219 218 218 217 219 221 220 219 221 221 217 214 216 218 218 218 219 221 226 231 235 237 239 242 243 242 242 242 241 238 237 243
190 211 196 181 179 194 211 228 241 256 263 256 215 194 193 168 167 198 172 151 181 213 284 292 270 271 268 262 247 225 222 243 246 239 240 239 238 241 243 244 240 241 238 232 233 222 212 211 210 211 212 212 214 215 214 213 213 214 218 222 220 219 223 225 224 223 222 223 221 220 223 225 230 235 237 239 239 237 237 236 238 239 240 240 241 246
207 189 159 165 177 190 205 213 223 235 244 258 241 213 184 156 172 172 128 143 179 228 262 294 279 269 263 258 250 225 214 235 244 238 238 233 233 239 241 242 238 238 240 233 233 224 209 211 211 211 212 211 211 212 211 210 213 218 221 224 224 221 225 227 228 228 225 223 222 218 220 225 228 232 231 230 232 228 226 230 229 233 241 243 244 244
216 157 141 161 175 188 201 210 216 218 227 247 252 241 194 155 154 114 126 150 210 235 206 219 260 265 254 249 248 228 204 229 240 233 238 234 231 235 234 239 239 236 238 233 234 226 209 214 214 212 212 210 212 216 215 216 220 223 223 225 226 225 227 228 229 228 224 222 221 213 210 215 217 221 224 224 223 220 221 227 230 237 244 244 242 238
206 154 146 160 169 182 195 213 217 209 223 236 239 249 205 146 143 141 152 177 232 247 176 190 245 267 267 253 245 233 209 234 242 229 235 237 231 232 230 236 239 236 235 232 234 229 216 215 213 213 213 210 216 220 220 221 224 224 223 224 226 225 226 227 227 227 223 220 218 214 213 215 213 217 223 223 222 223 227 232 237 242 245 244 243 237
174 160 154 160 168 177 191 212 211 201 218 233 193 205 184 146 151 153 165 203 233 279 107 191 231 269 270 260 245 239 231 245 252 242 237 232 226 229 230 234 236 235 233 229 230 227 222 219 215 216 215 216 222 222 221 223 225 224 223 224 225 225 225 226 226 225 224 220 216 216 217 219 220 223 225 224 225 229 232 236 240 243 244 245 244 238
170 168 161 164 170 180 198 203 192 193 215 248 216 193 170 147 148 150 182 218 253 319 251 204 175 251 263 254 205 214 232 245 249 245 242 233 222 224 229 231 231 233 230 227 229 228 223 221 219 220 219 220 223 222 222 225 226 224 224 224 224 224 224 225 225 225 224 222 219 218 218 220 224 228 228 225 227 232 234 238 241 242 242 243 243 241
178 173 162 164 175 192 199 184 171 191 209 242 222 148 83 82 97 116 196 199 97 245 249 203 169 230 267 261 225 187 216 239 244 246 245 236 223 221 225 226 228 232 230 227 232 234 229 224 223 223 223 223 224 224 226 226 226 226 224 223 222 222 224 225 226 224 223 223 221 219 218 221 225 226 225 223 228 234 235 238 240 239 240 241 241 240
332 151 157 172 190 188 178 164 177 196 186 155 188 115 74 48 65 71 143 118 182 241 235 187 177 216 265 262 232 204 207 228 240 247 245 233 229 231 231 228 230 235 235 232 237 241 240 236 231 227 227 228 227 227 228 227 227 226 224 222 222 223 223 224 225 223 223 223 222 221 221 225 226 225 225 224 228 233 233 234 236 236 237 238 238 238
29 127 156 182 172 144 148 163 178 185 161 147 184 143 112 80 88 110 122 154 229 241 214 186 182 204 241 249 222 215 211 224 242 250 250 236 228 237 238 231 231 234 238 241 242 243 242 240 233 228 229 228 223 223 225 225 225 224 224 223 222 222 222 222 223 222 221 222 223 224 224 227 228 228 228 229 231 232 230 231 231 232 233 234 235 235
202 158 170 161 145 148 154 168 150 148 165 163 168 156 156 172 154 190 188 188 231 234 88 186 187 204 239 251 246 246 237 235 241 245 253 250 238 238 229 216 210 207 223 237 241 242 235 233 227 222 225 223 213 215 220 222 222 222 223 222 219 221 221 219 220 222 221 222 223 225 226 228 229 230 231 232 233 233 231 231 229 227 227 227 228 228
192 205 188 167 156 163 165 170 167 162 173 177 176 174 178 171 172 202 206 216 238 230 75 135 185 224 252 251 244 243 242 243 242 239 243 245 247 251 242 235 221 207 224 228 234 238 232 232 229 223 223 218 212 215 216 218 220 219 219 219 218 220 219 217 219 221 222 223 225 226 227 228 229 230 232 234 235 234 233 231 229 228 228 228 230 230
189 209 194 182 165 167 181 186 179 169 175 186 184 185 193 182 188 203 204 220 227 188 135 157 175 218 213 184 255 240 248 256 257 257 250 245 250 265 277 264 249 238 233 225 230 240 239 238 236 232 230 221 216 216 213 216 219 218 218 219 220 221 219 219 221 222 222 224 226 227 228 230 230 232 233 234 234 233 232 231 230 231 233 233 235 237
207 241 182 182 166 165 182 191 177 166 175 189 181 195 210 199 191 189 201 233 203 151 200 187 233 240 227 320 297 250 253 257 251 251 241 243 242 243 263 260 250 248 240 231 235 240 243 239 231 231 233 231 225 219 214 216 217 218 218 220 222 223 221 221 222 222 223 225 226 227 228 229 229 229 230 231 232 231 232 233 234 235 236 237 238 239
203 228 165 169 178 182 186 181 172 172 171 181 190 200 213 202 190 193 195 60 57 263 225 181 240 260 276 289 273 245 246 244 237 230 220 232 230 223 253 253 243 246 239 239 243 242 247 244 234 230 229 230 230 225 221 220 218 219 220 219 221 222 218 218 222 224 224 225 226 226 227 228 227 226 227 229 231 233 234 235 237 238 239 240 240 240
189 197 164 172 184 192 190 176 180 188 164 166 196 184 141 5 263 229 228 195 208 254 233 183 224 236 219 254 260 224 236 239 235 223 194 208 217 220 244 242 236 243 245 252 254 252 254 251 246 239 233 233 233 233 230 225 223 223 222 222 222 221 218 218 221 224 225 225 225 226 228 228 228 229 231 232 232 234 235 236 238 238 239 241 242 242
187 149 178 190 187 177 168 173 188 208 198 213 210 177 148 196 200 177 218 217 213 240 249 202 214 227 214 216 220 217 222 236 239 223 192 208 215 220 240 244 248 262 272 268 259 255 250 242 245 244 245 248 247 245 239 233 230 227 225 225 224 223 222 221 222 224 225 224 225 228 230 230 230 231 233 234 233 233 236 237 238 239 240 241 242 243
185 187 188 201 181 147 153 186 191 200 217 263 233 186 173 225 190 179 203 216 213 237 261 236 201 228 215 198 219 238 239 242 240 219 220 227 221 226 235 245 270 286 278 269 258 255 249 239 246 249 256 262 258 254 247 238 232 227 225 225 224 224 223 222 223 224 224 224 225 228 229 230 230 231 232 233 232 233 237 239 239 240 241 241 241 241
175 214 190 159 149 154 176 198 191 188 190 202 200 187 186 216 208 196 201 216 225 229 247 252 246 243 199 176 208 231 238 235 229 214 219 225 228 235 226 234 267 263 253 255 253 259 271 282 279 270 268 268 263 256 247 235 228 223 223 224 223 224 222 222 223 223 223 224 225 227 228 229 230 228 228 230 230 231 234 237 238 238 237 236 235 233
183 209 186 157 165 183 194 199 199 196 189 189 193 188 187 186 177 191 202 202 224 233 236 259 266 254 165 173 206 219 225 227 226 220 218 220 227 233 222 227 246 247 246 252 252 252 266 272 268 266 262 262 260 253 241 229 223 221 222 223 223 223 223 224 224 224 224 224 225 227 228 229 229 225 224 226 227 228 229 230 232 233 231 230 231 231
171 159 164 164 182 193 197 204 210 202 193 194 207 200 194 188 180 196 209 196 192 227 246 283 278 262 149 173 202 204 214 224 228 229 238 243 235 236 256 247 245 248 250 257 257 253 257 249 249 254 249 251 254 251 240 228 222 221 222 222 222 222 224 225 225 226 226 226 227 229 228 229 227 222 224 226 226 229 230 230 231 231 230 230 232 233
301 159 158 157 166 129 38 26 354 194 186 189 224 208 198 203 203 204 207 179 191 210 203 229 256 248 145 163 206 209 217 223 216 206 231 247 246 250 263 260 256 255 251 253 251 249 254 249 242 242 238 238 243 245 239 230 224 223 222 222 222 223 224 226 225 226 227 227 229 229 229 230 227 222 225 227 227 231 232 233 232 230 231 233 234 236
208 178 164 162 169 157 140 163 152 178 185 191 201 198 199 207 209 212 103 153 216 214 199 219 247 239 140 92 103 348 331 273 246 205 221 244 253 251 252 253 256 260 262 258 249 242 249 248 240 233 226 223 232 239 237 231 227 225 224 223 224 225 226 227 227 227 227 228 230 230 231 231 228 226 228 228 230 232 232 232 232 231 234 236 237 239
202 192 177 173 177 178 189 195 185 180 185 195 197 193 198 203 199 200 205 195 220 217 200 219 239 227 74 102 181 158 298 276 267 220 215 243 248 249 250 253 260 264 266 263 257 260 266 263 252 236 228 230 235 239 237 231 228 227 229 228 227 228 229 229 229 228 228 229 229 231 232 232 230 230 232 233 234 235 235 235 236 237 239 240 239 240
197 226 197 198 205 192 193 198 172 170 178 187 193 192 195 200 198 199 205 208 221 221 212 226 234 229 106 192 204 204 206 243 248 225 218 230 231 237 240 244 260 265 267 271 269 268 280 283 267 243 229 238 240 239 237 233 229 227 230 230 229 231 231 230 231 230 230 231 231 233 235 235 235 235 237 237 238 239 240 239 240 241 241 241 239 239
165 246 209 215 223 213 67 100 149 167 185 191 191 193 193 193 195 200 212 220 219 219 237 238 231 241 241 205 198 216 206 217 233 225 224 220 209 214 215 226 244 247 255 259 242 223 206 270 272 254 234 244 245 243 238 233 229 224 226 228 228 230 231 232 233 232 233 234 235 238 241 240 241 241 241 241 240 241 241 241 241 241 240 240 239 238
208 227 211 220 224 218 16 139 169 177 197 200 193 192 189 185 192 203 215 223 214 204 240 241 215 229 243 218 195 208 205 209 222 221 229 230 203 192 187 219 241 230 228 240 232 197 168 207 250 253 250 249 248 248 243 237 231 225 225 226 227 231 234 236 238 238 238 240 241 245 246 245 246 245 244 243 242 242 242 241 241 240 239 239 238 238
208 221 209 216 224 222 220 188 182 183 194 203 199 193 187 186 198 207 217 226 219 217 244 250 234 238 245 221 192 196 200 220 251 272 257 235 216 197 190 214 234 217 195 208 227 220 191 195 216 227 235 240 244 247 244 239 235 231 231 232 232 237 241 245 249 249 247 248 249 251 251 249 249 247 245 244 243 243 242 240 240 239 238 239 238 238
204 218 200 196 226 229 219 219 210 195 193 194 195 195 189 190 203 214 225 229 220 227 243 248 245 247 246 200 176 188 189 213 246 247 213 194 206 203 195 216 226 221 204 194 217 236 213 201 211 212 212 232 243 246 244 243 243 240 239 241 244 249 251 254 259 261 260 260 259 257 254 252 251 250 248 246 244 242 241 240 239 238 238 238 237 236
203 208 180 181 217 229 216 211 214 213 210 203 196 189 184 190 203 212 222 222 208 221 238 243 246 251 235 167 186 205 204 212 232 236 225 208 221 205 208 223 217 200 217 215 224 233 228 221 214 203 209 230 240 244 244 245 247 246 245 249 255 255 251 253 258 262 265 267 266 263 257 253 251 250 249 248 245 242 240 238 238 237 236 235 234 232
214 202 176 183 208 228 218 207 203 216 262 222 201 188 185 194 205 210 220 222 213 218 231 234 239 239 162 169 202 211 213 220 234 238 226 213 241 229 216 222 217 194 199 216 228 229 232 228 212 208 219 232 244 248 247 244 243 249 254 256 255 250 247 253 257 261 266 267 267 265 260 254 250 248 248 247 245 243 239 237 236 235 233 232 231 229
215 219 213 189 213 228 199 170 176 207 232 228 204 192 192 195 199 206 220 223 217 223 240 245 242 206 156 197 213 211 215 223 236 247 230 198 225 232 219 213 222 214 201 225 244 243 244 241 237 239 239 245 253 254 250 250 254 261 260 254 251 248 248 253 257 261 266 267 266 263 259 255 250 246 246 245 244 242 238 236 236 234 232 230 228 226
189 203 250 201 225 227 141 137 181 217 230 236 203 192 201 205 203 211 228 228 216 218 234 242 241 224 197 221 226 220 225 229 242 254 247 229 226 233 233 222 218 223 221 231 240 239 238 232 227 239 248 255 262 262 259 261 265 265 258 252 252 250 250 252 254 259 263 264 264 261 257 254 249 246 244 242 241 240 237 236 234 232 229 227 225 224
182 184 194 164 202 190 140 172 202 240 255 172 126 163 195 211 210 213 231 232 218 215 225 236 240 233 219 230 236 237 240 240 254 253 246 238 231 234 243 233 212 217 229 235 239 241 243 243 239 240 249 258 264 264 265 269 271 264 255 252 252 250 251 251 251 256 259 261 263 261 256 252 249 246 243 239 237 237 236 234 232 229 227 225 224 224
187 181 180 199 201 190 198 198 216 298 306 143 162 180 185 200 204 203 229 238 218 215 230 242 244 235 222 213 166 116 148 131 268 254 242 227 211 206 222 227 214 215 227 236 242 248 253 258 262 262 262 266 268 268 272 275 270 257 250 248 247 247 248 246 250 258 261 262 265 263 258 254 250 248 243 236 234 236 235 232 231 228 225 223 222 222
217 186 181 200 204 189 212 220 215 261 255 223 215 203 192 202 195 176 238 255 213 201 223 235 237 229 216 200 150 137 154 183 249 256 236 177 188 198 200 212 217 220 228 234 239 249 257 262 267 270 271 273 276 279 284 281 271 254 247 246 245 243 241 243 253 262 264 266 267 265 261 257 253 250 244 237 235 236 234 231 230 228 224 222 222 223
26 59 158 197 204 185 207 219 212 229 240 254 242 197 180 168 116 111 227 253 228 208 219 229 234 225 208 192 159 154 179 221 244 253 140 139 192 204 197 206 213 220 233 239 240 246 254 259 264 271 276 281 282 285 285 280 269 255 248 250 249 243 240 246 258 265 267 269 270 267 266 262 256 251 246 241 240 238 234 232 230 228 225 224 224 225
132 107 145 199 200 182 201 212 218 234 236 35 17 217 155 136 119 138 221 252 286 286 244 234 235 223 198 186 169 169 197 228 243 239 112 166 206 205 204 216 213 215 232 242 247 251 258 266 273 276 279 279 280 284 284 278 268 253 249 253 249 240 240 250 261 266 267 268 267 266 267 265 259 254 250 247 245 241 236 234 231 227 226 225 224 225
156 165 180 205 205 200 201 204 232 253 281 15 326 292 156 143 145 184 218 255 338 336 326 289 264 235 192 180 173 184 209 228 238 105 77 212 227 188 334 314 206 214 229 243 256 267 276 279 276 273 274 276 280 287 289 284 270 254 252 251 243 240 247 256 261 263 264 265 265 264 264 263 258 255 253 251 249 244 240 236 231 228 226 224 223 223
164 170 188 204 211 216 206 217 250 243 39 353 309 321 28 161 178 214 254 316 336 332 337 342 335 307 214 188 185 201 218 232 242 62 55 35 61 71 20 20 48 239 235 239 256 270 282 284 277 272 275 283 291 295 293 286 268 257 255 250 247 252 260 262 261 262 264 265 266 265 264 262 258 256 254 252 249 245 241 238 234 231 228 226 224 224
175 171 186 191 191 194 192 220 247 240 349 330 301 346 27 22 195 299 309 335 356 350 349 5 11 352 326 276 196 222 249 3 21 35 41 53 78 80 46 11 7 351 345 323 292 285 284 284 284 283 288 301 309 305 297 283 267 262 259 257 260 269 275 274 271 271 270 270 269 267 266 264 261 258 255 252 249 245 242 240 237 233 230 227 225 225
184 173 195 192 186 199 198 202 224 201 1 350 16 95 65 24 4 351 349 12 13 4 360 14 17 2 353 19 45 37 35 37 23 12 16 17 23 34 35 17 1 349 345 342 335 327 313 302 301 305 314 325 327 323 312 286 269 265 264 268 279 292 296 293 290 283 276 274 272 270 269 266 263 260 256 252 249 244 240 238 237 234 230 228 226 225
178 181 221 178 130 111 129 118 119 122 53 38 65 82 74 55 31 21 40 41 21 9 8 12 16 12 9 24 49 54 47 34 27 29 28 20 18 20 20 20 20 16 7 0 359 352 337 322 319 323 329 337 344 349 339 313 284 274 275 285 299 308 309 308 306 296 286 280 277 275 274 271 267 262 256 251 245 240 236 233 231 229 227 226 225 225
10 256 334 98 129 87 56 66 107 113 79 69 75 79 78 70 46 27 41 43 23 10 10 11 18 20 15 22 45 54 44 27 32 39 28 22 26 23 15 15 23 25 22 18 12 2 349 337 339 345 344 346 355 358 348 338 313 294 294 302 308 306 305 305 303 299 295 291 287 285 281 275 270 263 256 250 244 240 236 231 227 225 223 222 222 224
265 228 67 101 173 148 98 95 99 87 79 77 79 81 77 67 52 35 35 34 16 2 2 5 10 16 20 27 37 42 37 27 27 26 20 18 18 15 13 14 12 13 20 19 7 0 357 354 357 3 360 355 356 354 350 348 336 315 307 308 307 304 301 299 296 294 293 291 290 289 283 276 269 262 256 251 243 238 236 232 229 227 223 221 221 223
191 178 104 105 140 97 118 135 125 97 79 64 62 72 66 53 47 41 33 27 20 10 5 5 8 15 22 23 24 28 29 26 21 14 10 9 8 8 9 8 3 2 9 11 7 6 6 2 356 357 1 2 358 355 354 352 344 333 320 311 307 303 299 297 295 293 291 289 288 286 281 274 265 256 253 250 243 237 234 231 229 229 229 227 225 224
32 118 149 128 108 88 104 143 163 145 84 48 40 60 60 41 38 39 30 30 32 25 19 17 16 22 26 22 20 24 25 22 18 11 5 3 3 2 360 359 360 2 4 4 5 6 6 2 354 350 353 359 359 356 355 353 348 342 334 323 316 307 301 299 298 294 293 293 290 286 281 273 262 253 248 246 245 242 239 237 235 234 237 238 236 233
49 130 151 121 123 124 102 109 170 149 89 44 28 54 55 28 30 43 35 30 29 20 17 22 22 24 28 25 23 25 22 16 11 8 6 3 358 353 353 354 355 359 2 2 0 0 1 359 353 349 348 350 353 354 354 353 350 347 341 333 327 318 310 305 302 298 298 298 296 291 284 275 265 256 249 245 244 244 246 247 244 241 243 245 246 244
36 114 141 113 106 111 106 95 86 91 100 86 43 51 42 13 38 53 38 29 27 15 15 27 25 18 18 19 22 25 21 9 7 10 12 5 354 347 348 352 355 357 360 360 357 354 352 351 350 348 346 345 345 346 348 348 349 350 345 338 332 325 317 310 304 301 301 300 299 296 290 281 270 263 257 251 247 246 248 251 251 247 245 245 247 249